Location: Mentone
(34.5413°N, 85.5351°W)
Time: 10:06:11
(UTC-05:00)

UOSAT-12 - Visible Passes

Search period start: 29 March 2017 00:00
Search period end: 08 April 2017 00:00
Orbit: 608 x 646 km, 64.6° (Epoch: 27 March)

Date Brightness Start Highest point End Pass type
(mag) Time Alt. Az. Time Alt. Az. Time Alt. Az.
01 Apr 9.6 21:17:57 10° NNE 21:18:51 13° NNE 21:18:51 13° NNE visible
02 Apr 9.3 21:36:43 10° N 21:38:21 19° N 21:38:21 19° N visible
03 Apr 9.3 21:56:09 10° NNW 21:57:54 23° NNW 21:57:54 23° NNW visible
04 Apr 8.9 20:37:04 10° N 20:40:11 18° NE 20:40:11 18° NE visible
04 Apr 9.7 22:16:05 10° NW 22:17:30 19° NW 22:17:30 19° NW visible
05 Apr 8.0 20:56:01 10° NNW 20:59:50 35° NE 20:59:50 35° NE visible
05 Apr 10.2 22:36:44 10° WNW 22:37:09 12° WNW 22:37:09 12° WNW visible
06 Apr 9.4 19:39:00 10° NE 19:39:27 10° NE 19:39:53 10° NE visible
06 Apr 7.4 21:15:34 10° NNW 21:19:34 65° NNW 21:19:34 65° NNW visible
07 Apr 8.7 19:56:13 10° N 19:59:44 21° NE 20:02:03 15° E visible
07 Apr 8.3 21:35:37 10° NW 21:39:22 38° W 21:39:22 38° W visible
